QPF
0.05 0.05 0.06 0.04 0.03 0.02 0.01 0.00 0.00 0.00 0.00 0.00 0.00 0.00 0.00 0.00 0.00 0.00 0.00 0.00 0.00 0.00 0.00 0.00 0.00 0.00 0.00 0.00 0.00 0.00 0.00 0.00 0.00 0.00 0.00 0.00 0.00 0.00 0.00 0.00 0.00 0.00 0.00 0.00
0.03 0.03 0.01 0.01 0.01 0.01 0.02 0.01 0.01 0.00 0.00 0.00 0.00 0.00 0.00 0.00 0.00 0.00 0.00 0.00 0.00 0.00 0.00 0.00 0.00 0.00 0.00 0.00 0.00 0.00 0.00 0.00 0.00 0.00 0.00 0.00 0.00 0.00 0.00 0.00 0.00 0.00 0.00 0.00
0.02 0.01 0.00 0.01 0.02 0.03 0.03 0.01 0.01 0.00 0.00 0.00 0.00 0.00 0.00 0.00 0.00 0.00 0.00 0.00 0.00 0.00 0.00 0.00 0.00 0.00 0.00 0.00 0.00 0.00 0.00 0.00 0.00 0.00 0.00 0.00 0.00 0.00 0.00 0.00 0.00 0.00 0.00 0.01
0.02 0.01 0.01 0.02 0.03 0.03 0.02 0.01 0.00 0.01 0.02 0.02 0.01 0.00 0.00 0.00 0.00 0.00 0.00 0.00 0.00 0.00 0.00 0.00 0.00 0.00 0.00 0.00 0.00 0.00 0.00 0.00 0.00 0.00 0.00 0.00 0.00 0.00 0.00 0.00 0.00 0.01 0.01 0.01
0.03 0.02 0.01 0.02 0.02 0.01 0.01 0.01 0.01 0.02 0.03 0.02 0.01 0.00 0.00 0.00 0.00 0.00 0.00 0.00 0.00 0.00 0.00 0.00 0.00 0.00 0.00 0.00 0.00 0.00 0.00 0.00 0.00 0.00 0.00 0.00 0.00 0.00 0.00 0.00 0.00 0.01 0.01 0.01
0.03 0.01 0.01 0.01 0.00 0.01 0.02 0.04 0.06 0.06 0.06 0.05 0.01 0.00 0.00 0.00 0.00 0.00 0.00 0.00 0.00 0.00 0.00 0.00 0.00 0.00 0.00 0.00 0.00 0.00 0.00 0.00 0.00 0.00 0.00 0.00 0.00 0.00 0.00 0.00 0.01 0.00 0.00 0.00
0.03 0.02 0.01 0.00 0.02 0.03 0.06 0.10 0.14 0.15 0.12 0.04 0.00 0.00 0.00 0.00 0.00 0.00 0.00 0.00 0.00 0.00 0.00 0.00 0.00 0.00 0.00 0.00 0.00 0.00 0.00 0.00 0.00 0.00 0.00 0.00 0.00 0.00 0.00 0.00 0.00 0.00 0.00 0.00
0.02 0.02 0.01 0.00 0.01 0.04 0.05 0.06 0.07 0.05 0.02 0.00 0.00 0.00 0.00 0.00 0.00 0.00 0.00 0.00 0.00 0.00 0.00 0.00 0.00 0.00 0.00 0.00 0.00 0.00 0.00 0.00 0.00 0.00 0.00 0.00 0.00 0.00 0.00 0.00 0.00 0.00 0.00 0.00
0.00 0.00 0.00 0.00 0.00 0.00 0.01 0.02 0.01 0.01 0.01 0.00 0.00 0.00 0.00 0.00 0.00 0.00 0.00 0.00 0.00 0.00 0.00 0.00 0.00 0.00 0.00 0.00 0.00 0.00 0.00 0.00 0.00 0.00 0.00 0.00 0.00 0.00 0.00 0.00 0.00 0.00 0.00 0.00
0.00 0.00 0.00 0.00 0.00 0.01 0.01 0.01 0.02 0.03 0.02 0.00 0.00 0.00 0.00 0.00 0.00 0.00 0.00 0.00 0.00 0.00 0.00 0.00 0.00 0.00 0.00 0.00 0.00 0.00 0.00 0.00 0.00 0.00 0.00 0.00 0.00 0.00 0.00 0.00 0.00 0.00 0.00 0.00
0.00 0.00 0.00 0.00 0.01 0.01 0.01 0.01 0.03 0.03 0.01 0.00 0.00 0.00 0.00 0.00 0.00 0.00 0.00 0.00 0.00 0.00 0.00 0.00 0.00 0.00 0.00 0.00 0.00 0.00 0.00 0.00 0.00 0.00 0.00 0.00 0.00 0.00 0.00 0.00 0.00 0.00 0.00 0.00
0.00 0.00 0.00 0.00 0.00 0.00 0.00 0.01 0.01 0.01 0.01 0.00 0.00 0.00 0.00 0.00 0.00 0.00 0.00 0.00 0.00 0.00 0.00 0.00 0.00 0.00 0.00 0.00 0.00 0.00 0.00 0.00 0.00 0.00 0.00 0.00 0.00 0.00 0.00 0.00 0.00 0.00 0.00 0.00
0.00 0.00 0.01 0.01 0.01 0.01 0.01 0.01 0.01 0.00 0.00 0.00 0.00 0.00 0.00 0.00 0.00 0.00 0.00 0.00 0.00 0.00 0.00 0.00 0.00 0.00 0.00 0.00 0.00 0.00 0.00 0.00 0.00 0.00 0.00 0.00 0.00 0.00 0.00 0.00 0.00 0.00 0.00 0.00
0.00 0.00 0.00 0.01 0.00 0.00 0.00 0.00 0.00 0.00 0.00 0.00 0.00 0.00 0.00 0.00 0.00 0.00 0.00 0.00 0.00 0.00 0.00 0.00 0.00 0.00 0.00 0.00 0.00 0.00 0.00 0.00 0.00 0.00 0.00 0.00 0.00 0.00 0.00 0.00 0.00 0.00 0.00 0.00
0.00 0.00 0.00 0.00 0.00 0.00 0.00 0.00 0.00 0.00 0.00 0.00 0.00 0.00 0.00 0.00 0.00 0.00 0.00 0.00 0.00 0.00 0.00 0.00 0.00 0.00 0.00 0.00 0.00 0.00 0.00 0.00 0.00 0.00 0.00 0.00 0.00 0.00 0.00 0.00 0.00 0.00 0.00 0.00
0.00 0.00 0.00 0.00 0.00 0.00 0.00 0.00 0.00 0.01 0.00 0.00 0.00 0.00 0.00 0.00 0.00 0.00 0.00 0.00 0.00 0.00 0.00 0.00 0.00 0.00 0.00 0.00 0.00 0.00 0.00 0.00 0.00 0.00 0.00 0.00 0.00 0.00 0.00 0.00 0.00 0.00 0.00 0.00
0.00 0.00 0.00 0.00 0.00 0.00 0.00 0.00 0.00 0.00 0.00 0.00 0.00 0.00 0.00 0.00 0.00 0.00 0.00 0.00 0.00 0.00 0.00 0.00 0.00 0.00 0.00 0.00 0.00 0.00 0.00 0.00 0.00 0.00 0.00 0.00 0.00 0.00 0.00 0.00 0.00 0.00 0.00 0.00
0.00 0.00 0.00 0.00 0.01 0.02 0.00 0.00 0.00 0.00 0.00 0.00 0.00 0.00 0.00 0.00 0.00 0.00 0.00 0.00 0.00 0.00 0.00 0.00 0.00 0.00 0.00 0.00 0.00 0.00 0.00 0.00 0.00 0.00 0.00 0.00 0.00 0.00 0.00 0.00 0.00 0.00 0.00 0.00
0.00 0.00 0.01 0.01 0.02 0.01 0.00 0.00 0.00 0.00 0.00 0.00 0.00 0.00 0.00 0.00 0.00 0.00 0.00 0.00 0.00 0.00 0.00 0.00 0.00 0.00 0.00 0.00 0.00 0.00 0.00 0.00 0.00 0.00 0.00 0.00 0.00 0.00 0.00 0.00 0.00 0.00 0.00 0.00
0.00 0.00 0.01 0.02 0.02 0.01 0.00 0.00 0.00 0.00 0.00 0.00 0.00 0.00 0.00 0.00 0.00 0.00 0.00 0.00 0.00 0.00 0.00 0.00 0.00 0.00 0.00 0.00 0.00 0.00 0.00 0.00 0.00 0.00 0.00 0.00 0.00 0.00 0.00 0.00 0.00 0.00 0.00 0.00
0.00 0.00 0.01 0.01 0.00 0.00 0.00 0.00 0.00 0.00 0.00 0.00 0.00 0.00 0.00 0.00 0.00 0.00 0.00 0.00 0.00 0.00 0.00 0.00 0.00 0.00 0.00 0.00 0.00 0.00 0.00 0.00 0.00 0.00 0.00 0.00 0.00 0.00 0.00 0.00 0.00 0.00 0.00 0.00
0.00 0.00 0.00 0.00 0.00 0.00 0.00 0.00 0.00 0.00 0.00 0.00 0.00 0.00 0.00 0.00 0.00 0.00 0.00 0.00 0.00 0.00 0.00 0.00 0.00 0.00 0.00 0.00 0.00 0.00 0.00 0.00 0.00 0.00 0.00 0.00 0.00 0.00 0.00 0.00 0.00 0.00 0.00 0.00
0.00 0.00 0.00 0.00 0.00 0.00 0.00 0.00 0.00 0.00 0.00 0.00 0.00 0.00 0.00 0.00 0.00 0.00 0.00 0.00 0.00 0.00 0.00 0.00 0.00 0.00 0.00 0.00 0.00 0.00 0.00 0.00 0.00 0.00 0.00 0.00 0.00 0.00 0.00 0.00 0.00 0.00 0.00 0.00
0.00 0.00 0.00 0.00 0.00 0.00 0.00 0.00 0.00 0.00 0.00 0.00 0.00 0.00 0.00 0.00 0.00 0.00 0.00 0.00 0.00 0.00 0.00 0.00 0.00 0.00 0.00 0.00 0.00 0.00 0.00 0.00 0.00 0.00 0.00 0.00 0.00 0.00 0.00 0.00 0.00 0.00 0.00 0.00
0.00 0.00 0.00 0.00 0.00 0.00 0.00 0.00 0.00 0.00 0.00 0.00 0.00 0.00 0.00 0.00 0.00 0.00 0.00 0.00 0.00 0.00 0.00 0.00 0.00 0.00 0.00 0.00 0.00 0.00 0.00 0.00 0.00 0.00 0.00 0.00 0.00 0.00 0.00 0.00 0.00 0.00 0.00 0.00
0.00 0.00 0.00 0.00 0.00 0.00 0.00 0.00 0.00 0.00 0.00 0.00 0.00 0.00 0.00 0.00 0.00 0.00 0.00 0.00 0.00 0.00 0.00 0.00 0.00 0.00 0.00 0.00 0.00 0.00 0.00 0.00 0.00 0.00 0.00 0.00 0.00 0.00 0.00 0.00 0.00 0.00 0.00 0.01
MSLP
1016.30 1016.82 1017.29 1017.71 1018.10 1018.46 1018.78 1019.06 1019.28 1019.41 1019.46 1019.41 1019.25 1019.01 1018.72 1018.40 1018.10 1017.86 1017.71 1017.65 1017.70 1017.84 1018.05 1018.29 1018.57 1018.84 1019.12 1019.40 1019.70 1020.03 1020.40 1020.82 1021.29 1021.79 1022.30 1022.80 1023.26 1023.67 1024.01 1024.30 1024.55 1024.77 1025.00 1025.25
1016.06 1016.48 1016.88 1017.26 1017.65 1018.06 1018.48 1018.89 1019.24 1019.49 1019.62 1019.60 1019.43 1019.12 1018.72 1018.27 1017.84 1017.47 1017.22 1017.10 1017.10 1017.22 1017.42 1017.67 1017.93 1018.19 1018.45 1018.71 1018.99 1019.33 1019.72 1020.19 1020.72 1021.29 1021.87 1022.43 1022.93 1023.36 1023.70 1023.97 1024.19 1024.39 1024.58 1024.81
1015.74 1016.10 1016.45 1016.82 1017.25 1017.73 1018.26 1018.79 1019.26 1019.61 1019.80 1019.78 1019.55 1019.13 1018.59 1017.98 1017.39 1016.89 1016.53 1016.34 1016.31 1016.42 1016.63 1016.89 1017.17 1017.44 1017.69 1017.95 1018.24 1018.59 1019.01 1019.52 1020.10 1020.73 1021.37 1021.97 1022.51 1022.95 1023.29 1023.55 1023.75 1023.92 1024.10 1024.32
1015.39 1015.72 1016.05 1016.45 1016.93 1017.51 1018.15 1018.79 1019.36 1019.77 1019.97 1019.90 1019.57 1019.01 1018.29 1017.50 1016.75 1016.11 1015.65 1015.39 1015.34 1015.45 1015.69 1015.99 1016.30 1016.60 1016.88 1017.15 1017.45 1017.81 1018.25 1018.79 1019.40 1020.07 1020.74 1021.37 1021.93 1022.39 1022.75 1023.01 1023.21 1023.38 1023.57 1023.80
1015.03 1015.35 1015.71 1016.15 1016.72 1017.39 1018.13 1018.87 1019.50 1019.93 1020.08 1019.93 1019.46 1018.73 1017.83 1016.85 1015.93 1015.16 1014.60 1014.30 1014.24 1014.37 1014.65 1015.00 1015.37 1015.71 1016.02 1016.33 1016.64 1017.01 1017.46 1018.00 1018.62 1019.29 1019.97 1020.62 1021.20 1021.67 1022.05 1022.34 1022.58 1022.80 1023.03 1023.30
1014.64 1014.99 1015.40 1015.92 1016.57 1017.33 1018.15 1018.94 1019.59 1019.99 1020.08 1019.81 1019.19 1018.28 1017.19 1016.05 1014.98 1014.09 1013.47 1013.14 1013.08 1013.26 1013.59 1014.00 1014.42 1014.82 1015.17 1015.50 1015.83 1016.19 1016.63 1017.15 1017.75 1018.41 1019.08 1019.73 1020.32 1020.83 1021.25 1021.60 1021.91 1022.21 1022.53 1022.88
1014.22 1014.62 1015.09 1015.68 1016.40 1017.23 1018.10 1018.91 1019.54 1019.89 1019.87 1019.47 1018.70 1017.64 1016.40 1015.12 1013.94 1012.98 1012.32 1011.99 1011.96 1012.18 1012.57 1013.05 1013.53 1013.98 1014.37 1014.71 1015.04 1015.39 1015.80 1016.28 1016.85 1017.47 1018.12 1018.76 1019.37 1019.92 1020.41 1020.85 1021.27 1021.69 1022.12 1022.59
1013.74 1014.19 1014.71 1015.36 1016.14 1017.00 1017.89 1018.68 1019.26 1019.53 1019.41 1018.89 1018.00 1016.82 1015.48 1014.12 1012.89 1011.91 1011.26 1010.95 1010.96 1011.24 1011.69 1012.22 1012.75 1013.23 1013.65 1014.00 1014.31 1014.64 1015.01 1015.45 1015.96 1016.55 1017.17 1017.81 1018.44 1019.04 1019.62 1020.17 1020.71 1021.27 1021.85 1022.45
1013.17 1013.66 1014.23 1014.91 1015.71 1016.58 1017.45 1018.19 1018.70 1018.88 1018.68 1018.07 1017.10 1015.86 1014.49 1013.12 1011.91 1010.96 1010.35 1010.10 1010.17 1010.50 1011.00 1011.57 1012.14 1012.64 1013.06 1013.40 1013.70 1014.00 1014.32 1014.72 1015.19 1015.73 1016.33 1016.97 1017.63 1018.29 1018.95 1019.62 1020.29 1020.99 1021.70 1022.43
1012.49 1013.01 1013.61 1014.32 1015.11 1015.95 1016.76 1017.43 1017.86 1017.97 1017.69 1017.04 1016.05 1014.83 1013.49 1012.19 1011.05 1010.20 1009.67 1009.50 1009.64 1010.02 1010.55 1011.15 1011.73 1012.23 1012.65 1012.98 1013.25 1013.51 1013.81 1014.16 1014.59 1015.10 1015.68 1016.33 1017.01 1017.73 1018.47 1019.23 1020.02 1020.83 1021.66 1022.50
1011.72 1012.27 1012.88 1013.58 1014.34 1015.13 1015.87 1016.45 1016.80 1016.84 1016.53 1015.87 1014.93 1013.78 1012.55 1011.38 1010.38 1009.65 1009.25 1009.16 1009.37 1009.79 1010.35 1010.95 1011.52 1012.02 1012.42 1012.73 1012.99 1013.23 1013.50 1013.82 1014.23 1014.72 1015.29 1015.93 1016.64 1017.39 1018.18 1019.02 1019.88 1020.77 1021.68 1022.58
1010.89 1011.47 1012.09 1012.77 1013.49 1014.20 1014.85 1015.35 1015.62 1015.60 1015.28 1014.66 1013.80 1012.77 1011.70 1010.70 1009.87 1009.30 1009.02 1009.04 1009.30 1009.76 1010.33 1010.92 1011.48 1011.96 1012.35 1012.65 1012.90 1013.14 1013.39 1013.71 1014.10 1014.58 1015.14 1015.78 1016.49 1017.26 1018.08 1018.95 1019.85 1020.77 1021.71 1022.63
1010.06 1010.67 1011.30 1011.95 1012.61 1013.25 1013.80 1014.20 1014.40 1014.34 1014.03 1013.47 1012.71 1011.84 1010.94 1010.13 1009.49 1009.08 1008.93 1009.03 1009.35 1009.83 1010.39 1010.97 1011.52 1011.98 1012.37 1012.67 1012.93 1013.18 1013.45 1013.77 1014.17 1014.64 1015.20 1015.83 1016.53 1017.30 1018.11 1018.97 1019.87 1020.78 1021.71 1022.62
1009.30 1009.94 1010.58 1011.20 1011.80 1012.34 1012.79 1013.09 1013.21 1013.13 1012.82 1012.32 1011.68 1010.95 1010.23 1009.61 1009.13 1008.87 1008.83 1009.01 1009.37 1009.86 1010.42 1010.99 1011.53 1011.99 1012.39 1012.72 1013.01 1013.29 1013.59 1013.94 1014.35 1014.83 1015.38 1016.01 1016.69 1017.44 1018.22 1019.05 1019.92 1020.80 1021.69 1022.56
1008.66 1009.34 1009.97 1010.55 1011.08 1011.52 1011.86 1012.06 1012.11 1011.97 1011.67 1011.23 1010.68 1010.09 1009.52 1009.05 1008.72 1008.57 1008.62 1008.86 1009.25 1009.74 1010.30 1010.86 1011.40 1011.88 1012.31 1012.69 1013.04 1013.37 1013.73 1014.12 1014.56 1015.06 1015.62 1016.24 1016.90 1017.62 1018.37 1019.17 1019.99 1020.82 1021.66 1022.49
1008.19 1008.88 1009.49 1010.01 1010.45 1010.79 1011.01 1011.10 1011.06 1010.88 1010.57 1010.15 1009.68 1009.19 1008.74 1008.38 1008.16 1008.10 1008.21 1008.48 1008.88 1009.37 1009.93 1010.50 1011.06 1011.58 1012.07 1012.51 1012.94 1013.36 1013.78 1014.24 1014.73 1015.26 1015.83 1016.45 1017.11 1017.80 1018.53 1019.29 1020.08 1020.88 1021.68 1022.47
1007.86 1008.54 1009.10 1009.55 1009.88 1010.10 1010.20 1010.18 1010.05 1009.81 1009.47 1009.08 1008.65 1008.23 1007.86 1007.58 1007.43 1007.42 1007.55 1007.83 1008.24 1008.73 1009.29 1009.89 1010.48 1011.07 1011.63 1012.16 1012.68 1013.20 1013.71 1014.24 1014.79 1015.37 1015.97 1016.61 1017.27 1017.97 1018.69 1019.44 1020.21 1020.98 1021.76 1022.53
1007.64 1008.27 1008.75 1009.10 1009.31 1009.40 1009.38 1009.25 1009.03 1008.73 1008.38 1007.99 1007.60 1007.22 1006.91 1006.68 1006.56 1006.57 1006.71 1006.99 1007.38 1007.88 1008.45 1009.07 1009.72 1010.37 1011.02 1011.66 1012.28 1012.90 1013.51 1014.12 1014.74 1015.37 1016.02 1016.69 1017.39 1018.11 1018.85 1019.60 1020.37 1021.15 1021.93 1022.69
1007.44 1007.97 1008.35 1008.57 1008.66 1008.63 1008.49 1008.28 1007.99 1007.66 1007.30 1006.93 1006.57 1006.24 1005.95 1005.76 1005.65 1005.67 1005.81 1006.07 1006.45 1006.95 1007.53 1008.18 1008.88 1009.61 1010.35 1011.08 1011.81 1012.52 1013.23 1013.92 1014.61 1015.31 1016.01 1016.73 1017.46 1018.22 1018.99 1019.78 1020.58 1021.37 1022.16 1022.92
1007.16 1007.57 1007.82 1007.92 1007.89 1007.75 1007.53 1007.26 1006.95 1006.63 1006.29 1005.96 1005.65 1005.36 1005.13 1004.96 1004.87 1004.88 1005.01 1005.26 1005.63 1006.11 1006.70 1007.38 1008.13 1008.91 1009.73 1010.54 1011.36 1012.16 1012.94 1013.70 1014.45 1015.20 1015.96 1016.73 1017.51 1018.31 1019.13 1019.96 1020.79 1021.61 1022.40 1023.16
1006.73 1007.00 1007.12 1007.10 1006.98 1006.77 1006.52 1006.25 1005.96 1005.68 1005.41 1005.16 1004.93 1004.72 1004.54 1004.41 1004.35 1004.37 1004.49 1004.72 1005.08 1005.55 1006.14 1006.83 1007.60 1008.43 1009.29 1010.16 1011.03 1011.88 1012.71 1013.52 1014.31 1015.10 1015.90 1016.70 1017.53 1018.38 1019.24 1020.11 1020.97 1021.81 1022.61 1023.36
1006.10 1006.25 1006.25 1006.15 1005.98 1005.76 1005.52 1005.29 1005.09 1004.91 1004.76 1004.62 1004.50 1004.40 1004.30 1004.24 1004.21 1004.25 1004.37 1004.59 1004.92 1005.38 1005.95 1006.64 1007.41 1008.25 1009.12 1010.01 1010.89 1011.76 1012.61 1013.43 1014.23 1015.04 1015.85 1016.68 1017.53 1018.41 1019.30 1020.20 1021.08 1021.93 1022.73 1023.46
1005.32 1005.35 1005.29 1005.15 1004.97 1004.78 1004.62 1004.49 1004.42 1004.38 1004.39 1004.41 1004.43 1004.45 1004.46 1004.47 1004.49 1004.56 1004.68 1004.89 1005.21 1005.64 1006.19 1006.85 1007.59 1008.41 1009.26 1010.12 1010.98 1011.83 1012.64 1013.44 1014.23 1015.01 1015.81 1016.64 1017.50 1018.39 1019.29 1020.20 1021.09 1021.93 1022.72 1023.44
1004.47 1004.45 1004.35 1004.22 1004.09 1003.98 1003.93 1003.95 1004.03 1004.17 1004.34 1004.53 1004.71 1004.86 1004.98 1005.08 1005.16 1005.26 1005.40 1005.60 1005.90 1006.30 1006.81 1007.42 1008.11 1008.87 1009.67 1010.47 1011.27 1012.05 1012.81 1013.55 1014.28 1015.02 1015.79 1016.59 1017.42 1018.30 1019.20 1020.10 1020.98 1021.82 1022.60 1023.29
1003.75 1003.71 1003.63 1003.55 1003.50 1003.50 1003.59 1003.76 1004.01 1004.31 1004.65 1004.99 1005.31 1005.58 1005.81 1005.98 1006.12 1006.25 1006.41 1006.61 1006.88 1007.24 1007.70 1008.25 1008.88 1009.56 1010.28 1011.00 1011.71 1012.40 1013.07 1013.73 1014.38 1015.05 1015.76 1016.51 1017.31 1018.15 1019.03 1019.92 1020.79 1021.62 1022.38 1023.06
1003.38 1003.37 1003.34 1003.33 1003.38 1003.50 1003.71 1004.02 1004.40 1004.83 1005.30 1005.76 1006.18 1006.54 1006.84 1007.07 1007.25 1007.41 1007.56 1007.75 1008.00 1008.32 1008.73 1009.21 1009.76 1010.36 1010.98 1011.61 1012.22 1012.81 1013.37 1013.93 1014.50 1015.09 1015.73 1016.42 1017.17 1017.97 1018.82 1019.68 1020.54 1021.36 1022.11 1022.79
Thickness
5574 5579 5589 5599 5603 5606 5605 5605 5609 5621 5630 5629 5631 5641 5656 5661 5659 5665 5669 5674 5681 5689 5692 5690 5690 5691 5690 5690 5689 5688 5686 5684 5681 5678 5675 5673 5672 5672 5670 5669 5668 5666 5663 5660
5563 5577 5593 5594 5594 5596 5598 5599 5604 5613 5620 5619 5622 5631 5648 5654 5656 5664 5672 5676 5682 5684 5685 5688 5690 5691 5692 5692 5691 5690 5688 5686 5684 5682 5679 5677 5675 5673 5672 5670 5668 5665 5663 5660
5571 5580 5583 5584 5584 5586 5589 5594 5599 5602 5607 5610 5613 5621 5638 5651 5654 5662 5667 5674 5679 5683 5687 5689 5690 5692 5693 5694 5695 5694 5691 5689 5686 5684 5679 5676 5673 5672 5670 5668 5667 5665 5662 5660
5561 5570 5575 5577 5580 5583 5584 5591 5593 5591 5590 5590 5597 5600 5632 5646 5651 5659 5667 5671 5677 5684 5688 5690 5692 5694 5697 5699 5697 5695 5693 5691 5688 5684 5681 5678 5675 5673 5672 5669 5666 5663 5661 5658
5555 5562 5568 5571 5579 5579 5579 5583 5580 5577 5574 5575 5585 5587 5620 5638 5646 5662 5670 5675 5682 5687 5690 5693 5696 5698 5699 5698 5697 5696 5694 5692 5690 5687 5684 5680 5677 5675 5671 5668 5664 5661 5658 5655
5547 5555 5564 5570 5572 5571 5570 5568 5562 5558 5555 5562 5585 5579 5607 5635 5652 5664 5673 5679 5686 5690 5691 5693 5695 5694 5695 5695 5695 5695 5693 5692 5690 5687 5685 5682 5678 5673 5669 5665 5661 5657 5653 5650
5533 5542 5553 5562 5558 5557 5561 5557 5549 5546 5546 5564 5581 5579 5615 5644 5654 5665 5676 5683 5688 5689 5688 5689 5689 5690 5692 5692 5693 5693 5692 5691 5689 5686 5684 5682 5678 5673 5669 5664 5659 5654 5649 5645
5534 5539 5549 5558 5565 5564 5562 5562 5558 5553 5554 5559 5566 5581 5622 5643 5653 5657 5664 5672 5677 5679 5682 5686 5689 5689 5690 5690 5690 5690 5691 5690 5687 5685 5683 5680 5676 5672 5667 5663 5657 5651 5646 5641
5547 5548 5551 5554 5562 5561 5550 5552 5560 5553 5548 5553 5562 5586 5613 5635 5644 5651 5656 5661 5669 5675 5677 5679 5681 5682 5683 5684 5685 5686 5687 5686 5684 5682 5679 5676 5672 5668 5664 5658 5653 5647 5641 5635
5553 5540 5540 5543 5549 5551 5556 5553 5541 5540 5543 5550 5570 5585 5610 5635 5644 5653 5655 5660 5669 5670 5669 5670 5671 5673 5674 5675 5676 5676 5678 5679 5678 5676 5674 5671 5667 5663 5658 5652 5646 5640 5634 5627
5547 5536 5526 5533 5545 5552 5547 5545 5545 5542 5544 5552 5560 5591 5622 5636 5647 5653 5661 5664 5665 5663 5661 5660 5660 5661 5663 5664 5665 5666 5667 5668 5668 5667 5666 5663 5659 5655 5650 5644 5639 5632 5625 5619
5537 5526 5516 5530 5544 5551 5550 5551 5549 5548 5545 5553 5563 5590 5626 5628 5636 5643 5649 5652 5652 5651 5650 5649 5648 5648 5650 5653 5655 5656 5657 5658 5658 5657 5656 5653 5650 5645 5640 5635 5628 5623 5616 5609
5535 5525 5511 5512 5525 5533 5541 5549 5556 5560 5549 5542 5553 5587 5619 5620 5625 5630 5634 5637 5637 5637 5636 5635 5635 5637 5640 5642 5644 5645 5646 5646 5646 5646 5645 5642 5639 5634 5629 5624 5617 5612 5605 5598
5538 5528 5531 5532 5547 5541 5539 5544 5548 5546 5543 5549 5565 5588 5607 5617 5621 5624 5625 5626 5624 5623 5624 5624 5625 5626 5628 5631 5633 5634 5634 5634 5634 5633 5632 5630 5626 5622 5617 5612 5606 5600 5594 5586
5534 5527 5532 5542 5544 5544 5543 5543 5542 5546 5553 5556 5573 5580 5600 5610 5615 5619 5619 5617 5615 5614 5614 5615 5616 5616 5617 5619 5621 5621 5621 5621 5621 5620 5619 5616 5612 5608 5603 5598 5592 5586 5580 5573
5531 5528 5526 5527 5531 5536 5536 5538 5542 5548 5557 5562 5570 5581 5602 5602 5602 5606 5608 5607 5608 5610 5611 5609 5609 5609 5609 5611 5611 5611 5610 5609 5608 5607 5604 5601 5597 5593 5589 5584 5578 5572 5565 5558
5518 5514 5509 5504 5512 5517 5515 5540 5547 5550 5558 5563 5570 5593 5591 5589 5593 5601 5604 5601 5605 5610 5608 5606 5606 5606 5605 5604 5603 5601 5599 5597 5595 5593 5590 5586 5583 5579 5574 5570 5564 5558 5551 5544
5519 5507 5494 5484 5495 5493 5537 5550 5552 5556 5564 5567 5575 5584 5585 5590 5594 5594 5596 5597 5601 5604 5603 5603 5602 5600 5597 5594 5592 5590 5587 5585 5582 5580 5576 5573 5570 5566 5560 5555 5550 5544 5537 5531
5521 5509 5484 5483 5490 5503 5532 5541 5547 5549 5559 5571 5573 5577 5576 5578 5577 5583 5591 5593 5599 5601 5601 5600 5597 5594 5589 5586 5582 5578 5574 5572 5571 5568 5565 5561 5558 5553 5547 5542 5536 5530 5523 5516
5506 5508 5489 5477 5484 5497 5549 5549 5544 5545 5549 5575 5570 5570 5565 5561 5562 5587 5593 5586 5588 5590 5590 5589 5585 5582 5580 5576 5571 5568 5565 5563 5562 5559 5554 5549 5545 5541 5536 5530 5522 5516 5510 5503
5483 5486 5489 5477 5484 5511 5537 5534 5539 5536 5562 5571 5564 5564 5559 5560 5575 5584 5584 5579 5579 5579 5577 5576 5574 5573 5571 5565 5560 5558 5555 5555 5552 5545 5539 5535 5531 5527 5522 5515 5508 5502 5495 5486
5495 5484 5483 5479 5484 5511 5523 5519 5539 5552 5556 5557 5556 5556 5556 5560 5565 5566 5566 5566 5565 5563 5563 5562 5561 5560 5556 5553 5550 5549 5546 5542 5535 5531 5525 5520 5516 5511 5505 5499 5491 5485 5479 5471
5499 5511 5506 5510 5523 5523 5517 5526 5536 5538 5542 5543 5542 5545 5546 5547 5547 5549 5550 5548 5548 5547 5546 5545 5545 5543 5539 5538 5538 5536 5531 5524 5520 5515 5510 5505 5500 5495 5490 5484 5477 5469 5463 5457
5481 5490 5491 5495 5501 5507 5507 5512 5517 5522 5525 5525 5526 5529 5533 5535 5535 5534 5530 5528 5528 5527 5527 5526 5527 5526 5523 5521 5521 5519 5513 5509 5504 5500 5494 5489 5484 5478 5472 5467 5462 5457 5450 5443
5479 5479 5485 5489 5488 5491 5496 5498 5502 5504 5505 5506 5508 5510 5513 5517 5517 5517 5513 5511 5509 5509 5508 5509 5510 5509 5506 5503 5502 5499 5496 5493 5489 5484 5478 5473 5468 5463 5456 5450 5445 5441 5437 5433
5458 5468 5481 5487 5482 5488 5488 5486 5487 5489 5488 5489 5492 5492 5491 5494 5497 5497 5494 5492 5491 5491 5490 5491 5491 5490 5487 5485 5483 5481 5479 5478 5474 5468 5462 5458 5453 5446 5441 5434 5427 5423 5419 5414